    Observer details:
    106 Crni Vrh.  Observer B. Mikuz.  0.6-m f/3.3 Deltagraph + CCD.
    198 Wildberg.  Observer R. Apitzsch.  0.35-m f/3.1 reflector + CCD.
    204 Schiaparelli Observatory.  Observer L. Buzzi.  0.60-m f/4.64 reflector
        + CCD.
    300 Bisei Spaceguard Center--BATTeRS.  Observers K. Nishiyama, T. Sakamoto.
        1.0-m f/3.0 reflector + CCD.
    703 Catalina Sky Survey.  Observer R. E. Hill.  Measurers A. Boattini,
        E. J. Christensen, A. R. Gibbs, A. D. Grauer, R. E. Hill, J. A. Johnson,
        R. A. Kowalski, S. M. Larson, R. H. McNaught, F. C. Shelly.  0.68-m
        Schmidt + CCD.
    807 Cerro Tololo.  Observers T. Linder, R. Holmes, H. Tanquary.  0.41-m f/11
        Ritchey-Chretien + CCD.
    958 Observatoire de Dax.  Observers P. Dupouy, J. B. de Vanssay, G. Soulie.
        Measurer P. Dupouy.  0.43-m f/2.7 reflector + CCD.
    A24 New Millennium Observatory, Mozzate.  Observer E. Cozzi.  0.36-m f/11
        Schmidt-Cassegrain + CCD.
    C23 Olmen.  Observer A. Diepvens.  0.20-m f/9 refractor + CCD.
    C43 Hoyerswerda.  Observer P. Lindner.  0.30-m f/6.3 Schmidt-Cassegrain + CCD.
    C77 Bernezzo Observatory.  Observer A. Mantero.  0.25-m f/4 reflector + CCD.
    F65 Haleakala-Faulkes Telescope North.  Observers K. Rochowicz, E. Guido,
        N. Howes.  2.0-m f/10.0 Ritchey-Chretien + CCD.
    H06 iTelescope Observatory, Mayhill.  Observers M. Urbanik, H. Sato, J. Jahn.
        0.25-m f/3.4 reflector + CCD, 0.43-m f/6.8 astrograph + CCD + f/4.5 focal
        reducer.
    H21 Astronomical Research Observatory, Westfield.  Observer R. Holmes.
        Measurers L. Buzzi, H. Devore, S. Foglia, T. Vorobjov.  0.61-m f/4.5
        astrograph + CCD.
    I93 St Pardon de Conques.  Observer F. Losse.  0.40-m f/3.7 reflector + CCD.
    J95 Great Shefford.  Observer P. Birtwhistle.  0.40-m f/6.0 Schmidt-Cassegrain
        + CCD.
    K33 San Defendente.  Observer E. Viano.  0.20-m f/10 Schmidt-Cassegrain + CCD
        + f/6.3 focal reducer.
    
    Orbital elements:
    2013 ET                                                  Earth MOID = 0.0042 AU
    Epoch 2013 Apr. 18.0 TT = JDT 2456400.5                 MPC
    M 346.44314              (2000.0)            P               Q
    n   0.74389920     Peri.   81.86024     -0.28829794     +0.95745627
    a   1.2063129      Node   171.35175     -0.90846931     -0.26930146
    e   0.3847511      Incl.    4.85238     -0.30260174     -0.10370250
    P   1.32           H   23.1           G   0.15           U   7
    Residuals in seconds of arc
    130303 703  0.4+  0.0     130303 198  0.3+  0.2-    130303 106  0.1-  0.2-
    130303 703  0.2+  0.0     130303 198  0.0   0.2+    130303 106  0.0   0.1+
    130303 703  0.0   0.6+    130303 198  0.1-  0.1+    130303 A24  0.9+  1.3+
    130303 703  0.1+  0.1-    130303 198  0.1+  0.0     130303 A24  0.5+  0.8+
    130303 H06  0.6-  0.0     130303 198  0.1+  0.1+    130303 A24  1.0-  1.0+
    130303 H06  0.3-  0.3-    130303 C43  0.2+  0.1-    130303 106  0.2-  0.0
    130303 H06  0.1-  0.3-    130303 C43  0.1-  0.0     130303 K33  0.7-  0.0
    130303 H06  0.6-  0.2+    130303 C43  0.2+  0.0     130303 K33  0.1-  0.1+
    130303 H06  0.5-  0.1+    130303 C43  0.4+  0.1+    130303 K33  1.0+  0.6-
    130303 H06  0.1-  0.1-    130303 C43  0.6+  0.4-    130304 807  0.2+  0.1+
    130303 H06  0.2+  0.0     130303 958  1.1-  0.2+    130304 807  0.1+  0.1+
    130303 H06  0.1+  0.3+    130303 958  1.4-  0.1-    130304 204  0.1-  0.1-
    130303 703  0.4+  0.3-    130303 958  0.8-  0.4-    130304 807  0.2+  0.0
    130303 H06  0.1-  0.0     130303 958  0.8-  0.4-    130304 204  0.1+  0.1-
    130303 703  0.4-  0.3+    130303 958  1.2-  0.5-    130304 204  0.2-  0.2-
    130303 H06  0.5-  0.3-    130303 958  1.3-  0.4-    130304 204  0.0   0.1-
    130303 703  0.5+  0.4+    130303 C43  0.2-  0.5-    130304 204  0.1-  0.1-
    130303 703  0.3-  0.1+    130303 I93  0.0   0.0     130304 807  0.1+  0.1+
    130303 H06  0.1-  0.2-    130303 C43  0.4+  0.1+    130304 807  0.1+  0.2+
    130303 H06  0.9+  0.6+    130303 C43  1.0+  0.0     130304 C23  0.8-  0.2-
    130303 300  0.4+  0.0     130303 I93  0.2+  0.0     130304 C23  0.8+  0.0
    130303 300  0.2+  0.1-    130303 J95  0.0   0.0     130304 C23  0.1+  0.5-
    130303 300  0.1+  0.0     130303 I93  0.2+  0.0     130304 C23 (2.7-  0.2+)
    130303 300  0.1+  0.2+    130303 J95  0.1+  0.1-    130304 H21  0.1+  0.0
    130303 300  0.2+  0.0     130303 J95  0.1+  0.0     130304 H21  0.1+  0.0
    130303 300  0.4+  0.1+    130303 C77  0.1+  0.2-    130304 H21  0.1-  0.1-
    130303 300  0.3+  0.2+    130303 C77  0.3+  0.1-    130304 F65  0.2-  0.2+
    130303 198  0.5+  0.5-    130303 C77  0.2-  0.0     130304 F65  0.1+  0.5+
    130303 198  0.2-  0.2-    130303 C77  0.0   0.2+    130304 F65  0.1-  0.2+
    130303 198  0.2+  0.1-    130303 106  0.1+  0.1-
    
    Ephemeris:
    2013 ET                  a,e,i = 1.21, 0.38, 5                   q = 0.7422
    Date    TT    R. A. (2000) Decl.     Delta      r     Elong.  Phase     V
    2013 02 02    10 43 35.4 -04 32 13   0.2659  1.2173   147.1    26.1    21.8
    ...
    2013 02 17    10 43 12.7 -06 24 47   0.1453  1.1249   158.9    18.5    20.1
    ...
    2013 02 25    10 36 58.0 -07 23 12   0.08701 1.0735   163.4    15.3    18.8
    ...
    2013 03 03    10 21 19.5 -08 40 50   0.04520 1.0345   162.3    17.0    17.3
    2013 03 04    10 15 28.1 -09 05 38   0.03837 1.0279   161.0    18.3    17.0
    2013 03 05    10 07 05.7 -09 39 32   0.03160 1.0214   159.0    20.3    16.7
    ...
    2013 03 11    00 57 01.6 -03 00 04   0.01214 0.9823    23.1   156.7    23.4
    ...
    2013 03 19    23 14 29.5 +04 53 28   0.06589 0.9310    11.3   167.9    32.1
    ...
    2013 04 03    23 06 22.4 +05 30 17   0.1779  0.8426    25.5   149.3    27.3
    
    A. U. Tomatic                (C) Copyright 2013 MPC           M.P.E.C. 2013-E14
    

    Read MPEC 2013-E13 Read MPEC 2013-E15


    MPEC number:

    Enter an MPEC number in one of the following forms:

    • 1997-B01 (the full form)
    • J97B01 (the packed version of the full form)
    • B01 (the abbreviated form)